Other Surface Observations
Issued by NWS Charleston, SC

Home | Current Version | Previous Version | Text Only | Print | Product List | Glossary On
Versions: 1 2 3 4 5 6 7 8 9 10 11 12 13 14 15 16 17 18 19 20 21 22 23 24 25 26 27 28 29 30 31 32 33 34 35 36 37 38 39 40 41 42 43 44 45 46 47 48 49 50
000
SXUS52 KCHS 281927
OSOCHS

Marine Observations
National Weather Service Charleston SC
300 PM EDT WED JUL 28 2021

...Downtown Charleston and Harbor...

CITY           SKY/WX    TMP DP  RH WIND       PRES   REMARKS
Waterfront Prk   N/A     82  77  84 N5        29.82S HX  90

...Lake Moultrie...

CITY           SKY/WX    TMP DP  RH WIND       PRES   REMARKS
Pinopolis        N/A     82  79  89 CALM      29.91R HX  93

...Lake and Supplemental Coastal Observations...

STATION/POSITION TIME  TEMP    WIND        PRES    WAVE   SWELL
                       AIR SEA DIR/SP/G            HT/PER HT/PER/DIR
                 (UTC) (F)     (DEG/KT/KT) (MB)    (FT/S) (FT/S/D)
Chrlstn Harbor   NOT AVBL
Fort Pulaski     1848   82 83              1015.8F
Sapelo Island    1900   93     340/  4     1015.0
Winyah Bay       1845   81      50/  5     1015.0S
Lake Murray      1920   90     200/  4/  5   N/A
ACE Basin NERRS  1845   87        CALM     1016.0S


...C-MAN and Buoy Observations...

STATION/POSITION TIME  TEMP    WIND        PRES    WAVE   SWELL
                       AIR SEA DIR/SP/G            HT/PER HT/PER/DIR
                 (UTC) (F)     (DEG/KT/KT) (MB)    (FT/S) (FT/S/D)
Buoy 41004       1910   80 83  360/ 12/ 14 1014.4
Buoy 41008       1850   83 86  310/  2/  2 1014.4F   2/ 9   2/120/ 9
Folly Beach CMAN 1900   80      20/  2/  3 1015.5F
Pritchards Islan NOT AVBL
Capers NS Buoy   1908   80 83  330/  4/  6 1015.1F
Capers NS Wave   1848      83                N/A     2/ 5
Fripp NS Buoy    1908   81 83  120/  2/  6 1014.4F
5E St. Marys GA  1900   85 87                N/A     2/ 9


STATION/POSITION TIME  TEMP    WIND        PRES    WAVE   SWELL
                       AIR SEA DIR/SP/G            HT/PER HT/PER/DIR
                 (UTC) (F)     (DEG/KT/KT) (MB)    (FT/S) (FT/S/D)
Frying Pan Buoy  1910   80 83  110/  8/ 10 1015.0
Buoy 41025       1910   78 82  180/ 12/ 14 1015.1
Cape Lookout NC  1900   78     120/ 17/ 18 1016.1R
Buoy 41002       1910   83 83  230/  6/  8 1015.7
Buoy 41010       1910   83 84  240/  8/ 10 1015.8
St Augustine FL  1900   82 85  120/ 11/ 12 1015.7F

$$



USA.gov is the U.S. government's official web portal to all federal, state and local government web resources and services.